Location: Brno
(49.2000°N, 16.6330°E)
Time: 14:37:22
(UTC+01:00)

Daily predictions for brighter satellites

Satellite Brightness Start Highest point End
(mag) Time Altitude Azimuth Time Altitude Azimuth Time Altitude Azimuth
Cosmos 1992 Rocket 4.1 17:04:34 10° SSW 17:09:46 90° SE 17:15:02 10° NNE
Cosmos 2218 Rocket 4.1 17:03:45 10° N 17:09:48 53° ENE 17:15:46 10° SSE
NOSS 3-3 (A) 4.2 17:06:24 10° SW 17:12:35 86° NW 17:19:28 10° NE
NOSS 3-3 (C) 4.1 17:06:30 10° SW 17:12:41 86° NW 17:19:34 10° NE
Cosmos 968 Rocket 3.9 17:10:12 10° NNW 17:15:21 69° WSW 17:20:25 10° SSE
Meteor 2-2 Rocket 4.5 17:09:54 10° N 17:15:28 49° ENE 17:20:56 10° SSE
SPOT 3 Rocket 4.2 17:12:20 10° ESE 17:16:50 32° ENE 17:21:22 10° N
ERBS 3.0 17:14:30 10° NW 17:17:40 36° NNE 17:20:50 10° E
Geosat 4.5 17:14:42 10° NE 17:19:29 42° ESE 17:24:15 10° S
Cosmos 1408 Rocket 4.4 17:17:37 10° SSE 17:21:20 29° E 17:25:04 10° NNE
FENGYUN 3A 4.0 17:16:44 10° SE 17:21:43 41° ENE 17:26:44 10° N
Cosmos 1328 4.5 17:19:04 10° SSE 17:22:44 35° E 17:26:26 10° NNE
IRAS Rocket 4.3 17:18:24 10° SSE 17:23:58 86° ENE 17:29:37 10° NNW
Cosmos 1980 Rocket 4.1 17:22:24 10° N 17:24:23 12° NNE 17:26:21 10° NE
Cosmos 1076 Rocket 3.6 17:20:20 10° S 17:24:38 61° E 17:28:57 10° NNE
Meteor 2-10 4.2 17:20:23 10° NNW 17:25:26 75° W 17:30:33 10° S
Cosmos 1400 Rocket 2.8 17:22:30 10° S 17:26:35 84° E 17:30:44 10° NNE
ERS-2 3.4 17:24:24 10° ESE 17:27:17 22° ENE 17:30:10 10° NNE
Cosmos 1300 2.7 17:24:03 10° N 17:27:54 90° W 17:31:44 10° S
Cosmos 909 Rocket 4.3 17:21:26 10° NW 17:28:33 54° NE 17:34:44 10° ESE
CZ-2C R/B 4.1 17:24:01 10° NNE 17:28:34 45° E 17:33:01 10° S
COSMO-SKYMED 1 3.3 17:26:17 10° NNE 17:30:14 33° E 17:34:09 10° SSE
METEOR-M 4.1 17:25:42 10° SSE 17:31:01 73° ENE 17:36:23 10° N
USA 116 4.3 17:27:00 10° NNE 17:31:16 54° ESE 17:36:00 10° S
SL-08 R/B 4.5 17:25:17 10° N 17:31:26 62° ENE 17:37:29 10° SSE
SeaSat 1 3.7 17:26:47 10° S 17:31:32 47° WSW 17:36:19 10° NW
Cosmos 1241 Rocket 4.4 17:25:55 10° NW 17:32:07 67° NE 17:38:19 10° SE
ATLAS 5 CENTAUR R/B 3.8 17:28:44 10° NW 17:32:21 18° N 17:36:14 10° NE
Cosmos 1340 4.3 17:31:39 10° NNE 17:33:56 15° ENE 17:35:46 12° E
Cosmos 1703 4.3 17:36:55 10° SSE 17:40:15 26° E 17:43:37 10° NNE
Cosmos 2366 rocket 4.0 17:36:46 10° N 17:43:03 82° E 17:49:14 10° SSE
Cosmos 44 3.2 17:41:30 10° SSW 17:45:43 55° ESE 17:49:21 14° NE
MONITOR-E 4.2 17:44:19 10° SSE 17:47:18 54° ENE 17:50:18 10° N
Cosmos 1726 4.3 17:44:06 10° NNW 17:47:19 29° W 17:50:31 10° SSW
Cosmos 1328 Rocket 3.6 17:43:46 10° N 17:48:03 51° ENE 17:52:17 10° SSE
BREEZE-M R/B 2.7 17:45:55 10° WSW 17:48:07 43° SSE 17:49:02 23° E
Cosmos 1821 Rocket 4.5 17:42:32 10° N 17:48:08 35° ENE 17:53:45 10° SE
Cosmos 2098 Rocket 3.9 17:43:09 10° N 17:48:19 56° ENE 17:54:42 10° SSE
SOZ 4.5 17:47:40 10° WNW 17:49:51 40° N 17:50:29 29° NE
USA 215 3.7 17:44:43 13° ENE 17:50:26 52° NNW 17:56:43 10° W
Cosmos 1743 Rocket 4.3 17:46:40 10° SSE 17:50:26 29° E 17:54:12 10° NNE
Cosmos 2228 Rocket 3.5 17:46:19 10° N 17:50:43 43° ENE 17:55:06 10° SSE
Cosmos 371 Rocket 4.3 17:48:47 10° SSE 17:52:42 25° E 17:54:55 18° ENE
USA 161 4.2 17:52:13 10° NW 17:52:43 10° WNW 17:53:11 10° WNW
TIMED 4.5 17:48:39 10° NNW 17:53:02 63° ENE 17:57:21 10° SSE
Meteor 1-27 4.2 17:48:55 10° N 17:54:37 66° ENE 18:00:22 10° SSE
SL-16 R/B 4.5 17:52:26 10° WNW 17:55:54 16° NNW 17:59:22 10° N
Meteor 1-28 Rocket 4.1 17:53:02 10° N 17:56:46 52° WNW 18:00:27 10° SSW
Envisat 4.2 17:55:47 18° E 17:57:10 21° ENE 18:00:51 10° NNE
SL-14 R/B 3.8 17:54:48 10° SSW 17:58:42 60° WNW 18:02:37 10° N
SJ-6B 4.2 18:01:05 19° NE 18:01:05 19° NE 18:03:04 10° NNE
COSMOS 2406 3.7 17:54:56 10° S 18:00:12 39° ESE 18:04:17 16° NE
Meteor 1-11 4.3 17:55:03 10° S 18:00:31 58° E 18:06:06 10° NNE
Cosmos 2369 4.5 17:56:05 10° NNW 18:01:11 32° NE 18:04:24 19° E
TSX-5 3.4 17:58:48 10° SSW 18:02:04 88° ESE 18:04:57 17° NNE
Cosmos 1943 4.3 17:59:06 10° WSW 18:04:23 40° NW 18:09:42 10° NNE
GEOS 3 Rocket 4.0 18:02:35 17° ESE 18:06:29 45° NE 18:11:37 10° NNW
Cosmos 1656 4.4 18:01:47 10° NNW 18:06:35 30° NE 18:08:45 23° E
Nadezhda 3 Rocket 4.2 18:01:03 10° SSE 18:07:05 48° E 18:13:10 10° NNE
Cosmos 1766 Rocket 3.6 18:05:18 10° SSW 18:09:37 81° W 18:13:59 10° N
Cosmos 1697 Rocket 3.7 18:06:06 10° NNW 18:10:42 25° NE 18:11:58 23° ENE
Cosmos 2058 3.0 18:12:55 10° S 18:16:59 52° E 18:20:30 14° NNE
FengYun 1-2 T 4.2 18:11:29 10° SSE 18:16:59 59° ENE 18:22:29 10° N
Cosmos 1151 Rocket 2.9 18:13:13 10° N 18:17:37 66° ENE 18:21:59 10° SSE
SKYMED 2 3.6 18:14:05 10° NNE 18:18:28 84° WNW 18:22:48 10° SSW
NOAA 12 4.2 18:14:35 10° SSE 18:19:50 79° WSW 18:25:08 10° NNW
Cosmos 1934 Rocket 4.2 18:16:54 10° N 18:23:02 46° ENE 18:29:08 10° SSE
Cosmos 1937 Rocket 4.0 18:18:52 10° N 18:23:44 37° ENE 18:25:16 31° E
Cosmos 1455 2.1 18:21:13 10° N 18:25:06 89° W 18:28:56 10° S
H-2A R/B 2.6 18:21:39 10° SSE 18:25:28 70° ENE 18:29:21 10° N
Cosmos 1346 Rocket 3.7 18:22:07 10° NNW 18:25:55 50° W 18:29:40 10° S
Meteor 2-10 Rocket 4.0 18:21:22 10° N 18:26:00 34° ENE 18:26:36 33° E
Cosmos 44 Rocket 3.2 18:22:55 10° SW 18:27:38 84° NW 18:30:19 26° NE
YAOGAN 1 4.4 18:24:24 10° SSW 18:28:21 34° W 18:32:19 10° NNW
CZ-4 R/B 4.0 18:26:17 10° SSW 18:29:43 24° W 18:33:11 10° NW
Thor Agena Rocket 4.2 18:30:01 32° E 18:30:01 32° E 18:34:40 10° SSE
Cosmos 1605 Rocket 4.4 18:25:12 10° N 18:30:51 37° ENE 18:33:25 26° ESE
CZ-4C R/B 3.7 18:28:14 10° SSE 18:30:20 17° SE 18:30:20 17° SE
RESURS DK-1 2.6 18:32:28 10° NNW 18:36:22 45° NE 18:36:22 45° NE
Cosmos 2322 Rocket 4.1 18:34:02 10° N 18:36:22 13° NNE 18:36:22 13° NNE
Cosmos 1315 Rocket 4.4 18:33:54 10° SW 18:37:28 33° WNW 18:41:04 10° N
Cosmos 1626 3.3 18:35:38 10° SSW 18:39:12 43° WNW 18:42:47 10° N
Cosmos 2239 Rocket 4.3 18:36:14 10° N 18:42:26 80° E 18:48:35 10° SSE
ALOS 3.7 18:39:28 10° SSW 18:43:51 39° W 18:48:15 10° NNW
Cosmos 2151 2.9 18:41:28 10° S 18:45:45 84° W 18:49:06 17° N
Cosmos 332 Rocket 3.7 18:43:18 10° SSW 18:48:12 84° ESE 18:50:24 34° NNE
Cosmos 1869 4.1 18:45:17 10° N 18:47:51 37° N 18:47:51 37° N
EO 1 Del DPAF 3.7 18:47:22 20° N 18:49:56 61° WNW 18:53:43 10° SSW
Meteor 2-15 4.3 18:46:47 10° S 18:52:53 79° E 18:58:59 10° NNE
ERBS 3.2 18:51:04 10° WNW 18:54:19 45° SW 18:54:27 44° SW
Cosmos 2150 Rocket 4.1 18:49:20 10° NNW 18:54:05 49° NE 18:54:05 49° NE
SL-16 R/B 4.0 18:56:28 10° N 18:58:44 16° NNE 18:58:44 16° NNE
ERS-2 3.8 18:57:22 10° SSW 19:00:46 35° W 19:04:12 10° NNW
Lacrosse 5 3.3 19:01:23 10° S 19:03:57 24° SSE 19:03:57 24° SSE
COSMO-SKYMED 1 4.4 19:02:32 10° N 19:06:21 30° WNW 19:10:08 10° SW
Cosmos 2360 Rocket 4.4 19:04:35 10° N 19:05:20 11° NNE 19:05:20 11° NNE
BREEZE-M DEB (TANK) 3.5 19:04:28 10° WSW 19:06:24 31° WSW 19:06:24 31° WSW
USA 81 4.4 19:03:37 10° SSW 19:08:51 64° W 19:14:07 10° N
Cosmos 1340 3.4 19:06:16 10° NNW 19:09:57 51° W 19:10:49 41° SW
Cosmos 1980 Rocket 3.2 19:04:57 10° NNW 19:08:48 32° NNE 19:08:48 32° NNE
Cosmos 1500 Rocket 4.2 19:08:23 10° SSW 19:12:46 54° WNW 19:15:35 21° N
Resurs 01 Rocket 3.8 19:16:46 16° N 19:16:46 16° N 19:17:42 10° N
Cosmos 2208 Rocket 3.9 19:08:42 10° SSW 19:14:01 87° ESE 19:14:46 67° NNE
Cosmos 1898 Rocket 3.7 19:09:46 10° NNW 19:15:05 71° WSW 19:17:40 31° S
ATLAS 5 CENTAUR R/B 3.5 19:14:07 10° NNW 19:18:03 27° NNE 19:18:03 27° NNE
Meteor 2-15 Rocket 4.4 19:14:29 10° SSW 19:20:37 80° W 19:26:46 10° N
Meteor 2-17 Rocket 4.2 19:14:48 10° N 19:20:54 75° E 19:21:41 65° SE
Cosmos 2082 Rocket 4.4 19:18:44 10° S 19:18:58 11° S 19:18:58 11° S
Cosmos 990 Rocket 4.0 19:22:14 10° NNW 19:27:30 79° WSW 19:27:30 79° WSW
Cosmos 2278 3.7 19:24:55 10° NNW 19:30:38 77° WSW 19:31:13 69° SSW
USA 215 3.7 19:32:03 44° NNE 19:32:49 46° N 19:39:00 10° WNW
Cosmos 371 Rocket 4.2 19:28:12 10° SW 19:32:51 47° WNW 19:33:39 43° NNW
Envisat 3.2 19:35:58 67° W 19:35:58 67° W 19:40:48 10° NNW
GEOS 3 Rocket 4.4 19:43:42 45° SSW 19:44:29 49° SW 19:49:43 10° NW
COSMOS 2406 4.3 19:39:06 10° WSW 19:44:30 42° NW 19:46:24 32° N
Cosmos 2369 4.2 19:40:06 10° NW 19:45:42 56° WSW 19:46:26 52° SW
Cosmos 1656 4.1 19:45:11 10° NW 19:50:16 56° W 19:50:16 56° W
Cosmos 1697 Rocket 3.4 19:49:39 10° NNW 19:53:45 49° NW 19:53:45 49° NW
CZ-4C R/B 4.2 20:14:14 10° SW 20:15:35 19° SW 20:15:35 19° SW
Cosmos 2322 Rocket 4.4 20:16:55 10° NNW 20:18:11 17° NNW 20:18:11 17° NNW
Cosmos 1980 Rocket 4.5 20:48:58 10° NW 20:50:36 19° NW 20:50:36 19° NW
